Weather History for Laramie, WY

Change the Weather History Date:

Thursday, December 27, 2012

  Actual Average Record
Temperature  
Mean Temperature 7 °F 21 °F  
Max Temperature 14 °F 32 °F 60 °F (1980)
Min Temperature 0 °F 10 °F -15 °F (1954)
Degree Days  
Heating Degree Days 58 44  
Month to date heating degree days 1041 1180  
Since 1 July heating degree days 2908 3492  
Cooling Degree Days 0 0  
Month to date cooling degree days 0 0  
Year to date cooling degree days 211 67  
Moisture  
Dew Point 5 °F    
Average Humidity 90    
Maximum Humidity 100    
Minimum Humidity 80    
Precipitation  
Precipitation T in 0.01 in 0.40 in (1987)
Month to date precipitation 0.21 0.28  
Year to date precipitation 6.27 10.88  
Sea Level Pressure  
Sea Level Pressure 29.79 in    
Wind  
Wind Speed 8 mph (North)    
Max Wind Speed 23 mph    
Max Gust Speed 29 mph    
Visibility 8 miles    
Events Fog , Snow    
T = Trace of Precipitation, MM = Missing Value Source: NWS Daily Summary

Daily Weather History Graph

Daily Weather History Graph

Search for Another Location

Airport:

Trip Planner

Search our weather history database for the weather conditions in past years. The results will help you decide how hot, cold, wet, or windy it might be!

Date:

Astronomy

Dec. 27, 2012 Rise Set
Actual Time 7:27 AM MST 4:40 PM MST
Civil Twilight 6:56 AM MST 5:11 PM MST
Nautical Twilight 6:21 AM MST 5:46 PM MST
Astronomical Twilight 5:48 AM MST 6:20 PM MST
Moon 4:26 PM MST (12/27) 6:40 AM MST (12/27)
Length of Visible Light 10h 15m
Length of Day
9h 12m
Full, 100% of the Moon is Illuminated
Dec 27
Full
Dec 28
Full
Jan 4
Last Quarter
Jan 11
New
Jan 18
First Quarter

Hourly Weather History & Observations

Time (MST) Temp. Windchill Dew Point Humidity Pressure Visibility Wind Dir Wind Speed Gust Speed Precip Events Conditions
12:53 AM 12.0 °F - 10.9 °F 95% 29.62 in 0.2 mi Calm Calm - N/A Fog Light Freezing Fog
1:53 AM 12.0 °F 5.9 °F 10.0 °F 92% 29.62 in 0.2 mi SE 3.5 mph - N/A Fog Light Freezing Fog
2:53 AM 7.0 °F -1.7 °F 5.0 °F 92% 29.69 in 0.5 mi SSE 4.6 mph - N/A Fog Light Freezing Fog
3:05 AM 6.8 °F - 5.0 °F 92% 29.54 in 1.0 mi Calm Calm - N/A   Overcast
3:17 AM 6.8 °F - 3.2 °F 85% 29.54 in 3.0 mi Calm Calm - N/A   Overcast
3:42 AM 8.6 °F 0.1 °F 5.0 °F 85% 29.54 in 1.8 mi East 4.6 mph - N/A   Overcast
3:50 AM 8.6 °F 0.1 °F 6.8 °F 92% 29.54 in 3.0 mi East 4.6 mph - N/A   Overcast
3:53 AM 8.1 °F -2.0 °F 6.1 °F 92% 29.70 in 6.0 mi East 5.8 mph - N/A   Overcast
4:53 AM 8.1 °F -3.2 °F 6.1 °F 92% 29.71 in 9.0 mi ENE 6.9 mph - N/A   Overcast
5:53 AM 12.0 °F 4.1 °F 9.0 °F 88% 29.70 in 10.0 mi NE 4.6 mph - N/A   Overcast
6:53 AM 10.0 °F -0.9 °F 8.1 °F 92% 29.72 in 10.0 mi North 6.9 mph - N/A   Overcast
7:53 AM 9.0 °F -0.9 °F 6.1 °F 88% 29.75 in 10.0 mi North 5.8 mph - N/A   Mostly Cloudy
8:53 AM 9.0 °F -0.9 °F 6.1 °F 88% 29.80 in 10.0 mi West 5.8 mph - N/A   Mostly Cloudy
9:53 AM 12.9 °F 5.2 °F 9.0 °F 84% 29.82 in 10.0 mi NNW 4.6 mph - N/A   Overcast
10:53 AM 12.9 °F -0.2 °F 10.0 °F 88% 29.80 in 10.0 mi NNW 10.4 mph - N/A   Overcast
11:53 AM 14.0 °F 0.5 °F 10.0 °F 84% 29.79 in 10.0 mi North 11.5 mph - N/A   Overcast
12:53 PM 12.9 °F -5.3 °F 9.0 °F 84% 29.78 in 10.0 mi NNW 20.7 mph 25.3 mph N/A   Partly Cloudy
1:53 PM 12.9 °F -2.8 °F 8.1 °F 81% 29.80 in 10.0 mi North 15.0 mph - N/A   Overcast
2:53 PM 12.9 °F -3.9 °F 8.1 °F 81% 29.85 in 10.0 mi NNW 17.3 mph 24.2 mph N/A   Scattered Clouds
3:53 PM 10.9 °F -7.0 °F 6.1 °F 81% 29.89 in 10.0 mi NNW 18.4 mph - N/A   Overcast
4:53 PM 8.1 °F -6.2 °F 3.0 °F 80% 29.93 in 10.0 mi NW 10.4 mph - N/A   Overcast
5:53 PM 3.0 °F -9.3 °F -0.0 °F 87% 29.96 in 10.0 mi WNW 6.9 mph - N/A   Mostly Cloudy
6:53 PM 6.1 °F -7.8 °F 1.9 °F 83% 29.98 in 10.0 mi NNW 9.2 mph - N/A   Overcast
7:53 PM 7.0 °F -1.7 °F 1.9 °F 80% 29.98 in 10.0 mi North 4.6 mph - N/A   Overcast
8:26 PM 8.6 °F -3.7 °F 3.2 °F 79% 29.75 in 10.0 mi West 8.1 mph - N/A   Overcast
8:53 PM 3.9 °F - 1.0 °F 88% 30.00 in 10.0 mi Calm Calm - N/A   Partly Cloudy
9:22 PM 3.2 °F -4.2 °F 1.4 °F 92% 29.76 in 9.0 mi NE 3.5 mph - N/A   Mostly Cloudy
9:31 PM 3.2 °F -6.2 °F 1.4 °F 92% 29.76 in 10.0 mi NE 4.6 mph - N/A   Scattered Clouds
9:53 PM 1.9 °F -5.6 °F -0.9 °F 88% 30.01 in 10.0 mi ESE 3.5 mph - N/A   Partly Cloudy
10:53 PM 3.9 °F -5.3 °F 1.0 °F 88% 30.01 in 10.0 mi ENE 4.6 mph - N/A   Overcast
11:53 PM -0.0 °F - -2.0 °F 91% 30.04 in 5.0 mi Calm Calm - 0.00 in Snow Light Snow